Location: Unspecified
(0.0000°N, 0.0000°E)
Time: 19:54:14
(UTC+00:00)

deb Kosmos-1275 - Pass Details

Date: 11 March 2026
Orbit: 880 x 1009 km, 83.1° (Epoch: 21 April)

Event Time Altitude Azimuth Distance (km) Brightness Sun altitude
Exits shadow 04:12:01 13° 190° (S) 2,470 ? -29.5°
Drops below altitude 10° 04:12:31 10° 189° (S) 2,651 ? -29.3°
Sets 04:15:00 0° 185° (S) 3,577 ? -28.7°
